Siloam Springs, AR

6:56 AM CDT on June 24, 2017 (GMT -0500)
Smith

Weather History for KSLG - February, 2014

Change the Weather History Date:

Friday, February 28, 2014

  Actual Average Record
Temperature  
Mean Temperature 37 °F -  
Max Temperature 44 °F 49 °F 75 °F (2006)
Min Temperature 30 °F 31 °F 15 °F (2002)
Degree Days  
Heating Degree Days 28    
Moisture  
Dew Point 24 °F    
Average Humidity 56    
Maximum Humidity 81    
Minimum Humidity 41    
Precipitation  
Precipitation 0.02 in - - ()
Sea Level Pressure  
Sea Level Pressure 29.87 in    
Wind  
Wind Speed 9 mph (SE)    
Max Wind Speed 18 mph    
Max Gust Speed 24 mph    
Visibility 10 miles    
Events      
Averages and records for this station are not official NWS values.
T = Trace of Precipitation, MM = Missing Value Source: NWS Daily Summary

Daily Weather History Graph

Daily Weather History Graph

Search for Another Location

Airport or City:

Trip Planner

Search our weather history database for the weather conditions in past years. The results will help you decide how hot, cold, wet, or windy it might be!

Date:

Astronomy

Feb. 28, 2014 Rise Set
Actual Time 6:49 AM CST 6:11 PM CST
Civil Twilight 6:23 AM CST 6:37 PM CST
Nautical Twilight 5:53 AM CST 7:07 PM CST
Astronomical Twilight 5:24 AM CST 7:37 PM CST
Moon 6:04 AM CST (2/28) 5:49 PM CST (2/28)
Length of Visible Light 12h 13m
Length of Day
11h 22m
Waning Crescent, 1% of the Moon is Illuminated
Feb 28
Waning Crescent
Mar 1
New
Mar 8
First Quarter
Mar 16
Full
Mar 23
Last Quarter

Hourly Weather History & Observations

Time (CST) Temp. Windchill Dew Point Humidity Pressure Visibility Wind Dir Wind Speed Gust Speed Precip Events Conditions
12:15 AM 35.6 °F 29.9 °F 15.8 °F 44% 29.90 in 10.0 mi South 6.9 mph - N/A   Clear
12:35 AM 35.6 °F 29.2 °F 15.8 °F 44% 29.89 in 10.0 mi SSE 8.1 mph - N/A   Clear
12:55 AM 35.6 °F 29.9 °F 15.8 °F 44% 29.89 in 10.0 mi SSE 6.9 mph - N/A   Clear
1:15 AM 35.6 °F 29.9 °F 15.8 °F 44% 29.89 in 10.0 mi SE 6.9 mph - N/A   Clear
1:35 AM 35.6 °F 29.2 °F 15.8 °F 44% 29.88 in 10.0 mi SE 8.1 mph - N/A   Clear
1:55 AM 35.6 °F 29.9 °F 15.8 °F 44% 29.88 in 10.0 mi SE 6.9 mph - N/A   Clear
2:15 AM 35.6 °F 29.9 °F 15.8 °F 44% 29.88 in 10.0 mi SE 6.9 mph - N/A   Clear
2:35 AM 35.6 °F 29.2 °F 15.8 °F 44% 29.87 in 10.0 mi SE 8.1 mph - N/A   Clear
2:55 AM 37.4 °F 31.4 °F 15.8 °F 41% 29.86 in 10.0 mi SE 8.1 mph - N/A   Clear
3:15 AM 35.6 °F 28.6 °F 15.8 °F 44% 29.85 in 10.0 mi SE 9.2 mph - N/A   Clear
3:35 AM 35.6 °F 28.0 °F 15.8 °F 44% 29.84 in 10.0 mi SE 10.4 mph - N/A   Clear
3:55 AM 35.6 °F 29.2 °F 15.8 °F 44% 29.84 in 10.0 mi SE 8.1 mph - N/A   Clear
4:15 AM 33.8 °F 27.7 °F 14.0 °F 44% 29.84 in 10.0 mi SE 6.9 mph - N/A   Clear
4:35 AM 35.6 °F 28.6 °F 14.0 °F 41% 29.84 in 10.0 mi SE 9.2 mph - N/A   Clear
4:55 AM 35.6 °F 29.2 °F 14.0 °F 41% 29.83 in 10.0 mi SE 8.1 mph - N/A   Clear
5:15 AM 35.6 °F 29.2 °F 14.0 °F 41% 29.85 in 10.0 mi ESE 8.1 mph - N/A   Clear
5:35 AM 33.8 °F 30.8 °F 14.0 °F 44% 29.86 in 10.0 mi ESE 3.5 mph - N/A   Clear
5:55 AM 32.0 °F 27.5 °F 12.2 °F 44% 29.86 in 10.0 mi ESE 4.6 mph - N/A   Clear
6:15 AM 30.2 °F 24.3 °F 14.0 °F 51% 29.85 in 10.0 mi ESE 5.8 mph - N/A   Clear
6:35 AM 30.2 °F 22.6 °F 14.0 °F 51% 29.84 in 10.0 mi ESE 8.1 mph - N/A   Clear
6:55 AM 30.2 °F 22.6 °F 14.0 °F 51% 29.83 in 10.0 mi ESE 8.1 mph - N/A   Clear
7:15 AM 33.8 °F 25.3 °F 14.0 °F 44% 29.83 in 10.0 mi ESE 11.5 mph - N/A   Clear
7:35 AM 35.6 °F 27.5 °F 15.8 °F 44% 29.82 in 10.0 mi SE 11.5 mph - N/A   Clear
7:55 AM 37.4 °F 28.2 °F 17.6 °F 45% 29.82 in 10.0 mi SE 16.1 mph 21.9 mph N/A   Mostly Cloudy
8:15 AM 39.2 °F 30.8 °F 17.6 °F 42% 29.81 in 10.0 mi SE 15.0 mph - N/A   Overcast
8:35 AM 39.2 °F 31.2 °F 19.4 °F 45% 29.82 in 10.0 mi SSE 13.8 mph 21.9 mph N/A   Overcast
8:55 AM 41.0 °F 34.3 °F 19.4 °F 42% 29.84 in 10.0 mi SSE 11.5 mph - N/A   Overcast
9:15 AM 41.0 °F 36.4 °F 19.4 °F 42% 29.86 in 10.0 mi South 6.9 mph - N/A   Overcast
9:35 AM 41.0 °F 35.8 °F 23.0 °F 49% 29.86 in 10.0 mi SSE 8.1 mph - N/A   Overcast
9:55 AM 42.8 °F 36.2 °F 24.8 °F 49% 29.86 in 10.0 mi SE 12.7 mph 20.7 mph N/A   Overcast
10:15 AM 42.8 °F 34.8 °F 24.8 °F 49% 29.86 in 10.0 mi South 17.3 mph 24.2 mph N/A   Overcast
10:35 AM 39.2 °F 32.5 °F 26.6 °F 61% 29.87 in 10.0 mi South 10.4 mph 16.1 mph 0.01 in   Overcast
10:55 AM 39.2 °F 31.2 °F 28.4 °F 65% 29.86 in 10.0 mi SSE 13.8 mph 17.3 mph 0.01 in   Overcast
11:15 AM 39.2 °F 29.8 °F 28.4 °F 65% 29.84 in - SE 18.4 mph 24.2 mph N/A   Overcast
11:35 AM 39.2 °F 30.5 °F 28.4 °F 65% 29.82 in - SE 16.1 mph - N/A   Overcast
11:55 AM 42.8 °F 36.2 °F 33.8 °F 70% 29.84 in - SSE 12.7 mph 21.9 mph N/A   Overcast
12:15 PM 42.8 °F 36.2 °F 30.2 °F 61% 29.84 in - SSE 12.7 mph 18.4 mph N/A   Overcast
12:35 PM 42.8 °F 37.0 °F 30.2 °F 61% 29.83 in - SSE 10.4 mph 20.7 mph N/A   Overcast
12:55 PM 42.8 °F 35.4 °F 28.4 °F 57% 29.83 in - SSE 15.0 mph 18.4 mph 0.01 in   Overcast
1:15 PM 42.8 °F 36.6 °F 28.4 °F 57% 29.82 in - SSE 11.5 mph 20.7 mph N/A   Overcast
1:35 PM 42.8 °F 35.4 °F 30.2 °F 61% 29.81 in - SE 15.0 mph 23.0 mph N/A   Overcast
1:55 PM 44.6 °F 40.2 °F 30.2 °F 57% 29.82 in - SSE 8.1 mph - N/A   Overcast
2:15 PM 44.6 °F 37.8 °F 28.4 °F 53% 29.82 in - SSE 15.0 mph 20.7 mph N/A   Overcast
2:35 PM 44.6 °F 37.8 °F 28.4 °F 53% 29.83 in - SSE 15.0 mph - N/A   Overcast
2:55 PM 42.8 °F 35.8 °F 28.4 °F 57% 29.83 in - SSE 13.8 mph 19.6 mph N/A   Overcast
3:15 PM 42.8 °F 36.2 °F 28.4 °F 57% 29.83 in - SSE 12.7 mph 18.4 mph N/A   Overcast
3:35 PM 42.8 °F 36.2 °F 28.4 °F 57% 29.84 in - SSE 12.7 mph 17.3 mph N/A   Overcast
3:55 PM 42.8 °F 35.4 °F 28.4 °F 57% 29.83 in - SSE 15.0 mph 18.4 mph N/A   Overcast
4:15 PM 42.8 °F 35.8 °F 30.2 °F 61% 29.84 in - SSE 13.8 mph - N/A   Overcast
4:35 PM 42.8 °F 36.2 °F 30.2 °F 61% 29.85 in - SSE 12.7 mph - N/A   Overcast
4:55 PM 42.8 °F 36.2 °F 30.2 °F 61% 29.86 in - SSE 12.7 mph - N/A   Overcast
5:15 PM 42.8 °F 36.6 °F 30.2 °F 61% 29.86 in - SSE 11.5 mph 19.6 mph N/A   Overcast
5:35 PM 41.0 °F 33.5 °F 30.2 °F 65% 29.86 in - SSE 13.8 mph - N/A   Overcast
5:55 PM 41.0 °F 33.9 °F 30.2 °F 65% 29.87 in - SSE 12.7 mph 17.3 mph N/A   Overcast
6:15 PM 41.0 °F 36.4 °F 30.2 °F 65% 29.88 in - SE 6.9 mph - N/A   Overcast
6:35 PM 41.0 °F 36.4 °F 30.2 °F 65% 29.88 in - SSE 6.9 mph - N/A   Overcast
6:55 PM 39.2 °F 33.6 °F 30.2 °F 70% 29.88 in - SE 8.1 mph - N/A   Overcast
7:15 PM 39.2 °F 33.6 °F 30.2 °F 70% 29.89 in - SE 8.1 mph - N/A   Overcast
7:35 PM 39.2 °F 34.2 °F 30.2 °F 70% 29.90 in - SSE 6.9 mph - N/A   Overcast
7:55 PM 39.2 °F 33.6 °F 30.2 °F 70% 29.91 in - SE 8.1 mph - N/A   Overcast
8:15 PM 39.2 °F 34.2 °F 30.2 °F 70% 29.92 in - SE 6.9 mph - N/A   Overcast
8:35 PM 39.2 °F 34.2 °F 30.2 °F 70% 29.92 in - SE 6.9 mph - N/A   Overcast
8:55 PM 39.2 °F 35.0 °F 30.2 °F 70% 29.94 in - SE 5.8 mph - N/A   Overcast
9:15 PM 39.2 °F 35.0 °F 30.2 °F 70% 29.94 in - SE 5.8 mph - N/A   Overcast
9:35 PM 39.2 °F 37.0 °F 32.0 °F 75% 29.95 in - ESE 3.5 mph - N/A   Overcast
9:55 PM 39.2 °F 37.0 °F 30.2 °F 70% 29.97 in - South 3.5 mph - N/A   Overcast
10:15 PM 39.2 °F 37.0 °F 30.2 °F 70% 29.97 in - East 3.5 mph - N/A   Scattered Clouds
10:35 PM 37.4 °F 34.9 °F 30.2 °F 75% 29.97 in - ESE 3.5 mph - N/A   Clear
10:55 PM 37.4 °F 33.8 °F 30.2 °F 75% 29.98 in - ENE 4.6 mph - N/A   Clear
11:15 PM 37.4 °F 34.9 °F 30.2 °F 75% 29.99 in - ENE 3.5 mph - N/A   Clear
11:35 PM 35.6 °F 32.8 °F 30.2 °F 81% 30.00 in - East 3.5 mph - N/A   Clear
11:55 PM 35.6 °F 32.8 °F 30.2 °F 81% 30.00 in - ESE 3.5 mph - N/A   Clear